Location: Maccacari
(45.1333°N, 11.1333°E)
Time: 00:26:34
(UTC+00:00)

Tiros 1 despin weight - Pass Details

Date: 25 January 2021
Orbit: 593 x 642 km, 48.2° (Epoch: 07 March)

Event Time Altitude Azimuth Distance (km) Brightness Sun altitude
Rises 13:48:45 0° 243° (WSW) 2,891 ? 18.5°
Reaches altitude 10° 13:51:05 10° 242° (WSW) 1,979 ? 18.2°
Maximum altitude 13:55:37 77° 157° (SSE) 630 ? 17.8°
Drops below altitude 10° 14:00:06 10° 71° (ENE) 1,954 ? 17.3°
Sets 14:02:23 0° 70° (ENE) 2,852 ? 17.0°
